Regional Weather Roundup
Issued by NWS Sterling, VA

Home | Current Version | Previous Version | Graphics & Text | Print | Product List | Glossary On
Versions: 1 2 3 4 5 6 7 8 9 10 11 12 13 14 15 16 17 18 19 20 21 22 23 24 25 26 27
000
ASUS41 KLWX 210711
RWRLWX

REGIONAL WEATHER ROUNDUP
NATIONAL WEATHER SERVICE BALTIMORE MD/WASHINGTON DC
300 AM EDT MON AUG 21 2017

Note: "FAIR" indicates few or no clouds below 12,000 feet
with no significant weather and/or obstructions to visibility.
 TC=TEMPERATURE CELSIUS

 * =Non NWS site. Station does not report precipitation (e.g. rain,
    snow, etc.), thunder, or fog.

DCZ001-MDZ009-015-VAZ040>042-051-053>054-210800-
WASHINGTON METRO

CITY           SKY/WX    TMP DP  RH WIND       PRES   REMARKS
WASHINGTON NAT CLOUDY    76  72  87 CALM      30.19S
DULLES         PTCLDY    70  69  97 CALM      30.19S
ANDREWS AFB    CLEAR     70  66  89 CALM      30.18F
FT BELVOIR     MOCLDY    71  70  95 CALM      30.18S
QUANTICO       CLEAR     78  73  84 S6        30.18S
COLLEGE PARK*  PTCLDY    68  67  96 CALM      30.18S
LEESBURG*      MOCLDY    70  70 100 CALM      30.20F
MANASSAS*      PTCLDY    70  69  97 S3        30.19S
GAITHERSBURG*  CLOUDY    68  66  93 CALM      30.20F

$$

MDZ006>007-011-014-210800-
BALTIMORE METRO

CITY           SKY/WX    TMP DP  RH WIND       PRES   REMARKS
BWI AIRPORT    MOCLDY    69  67  93 CALM      30.18S
MD SCIENCE CTR   N/A     76  66  71 MISG      30.19S
MARTIN STATE   PTCLDY    70  70 100 CALM      30.20S
ANNAPOLIS      CLEAR     75  74  96 CALM      30.17F
FORT MEADE*    PTCLDY    64  63  94 CALM      30.21S

$$

MDZ012-015-019>023-210800-
MARYLAND EASTERN SHORE

CITY           SKY/WX    TMP DP  RH WIND       PRES   REMARKS
OCEAN CITY     CLEAR     65  65 100 CALM      30.19F FOG
SALISBURY      PTCLDY    66  66 100 CALM      30.19F
BAY BRIDGE AP* CLEAR     73  68  83 CALM      30.18S
CAMBRIDGE*     CLEAR     66  64  94 CALM      30.19S
EASTON*        CLEAR    N/A N/A N/A CALM      30.22F

$$

MDZ017>025-210800-
SOUTHERN MARYLAND

CITY           SKY/WX    TMP DP  RH WIND       PRES   REMARKS
PATUXENT RIVER CLEAR     68  68 100 CALM      30.18S
ST INIGOES     CLEAR     69  68  96 CALM      30.17S
LEONARDTOWN*   CLEAR     68  66  94 CALM      30.19F

$$

MDZ003>005-210800-
NORTH CENTRAL MARYLAND

CITY           SKY/WX    TMP DP  RH WIND       PRES   REMARKS
FREDERICK*     PTCLDY    68  68 100 CALM      30.22S
HAGERSTOWN APT PTCLDY    72  61  68 E3        30.19S
WESTMINSTER*   PTCLDY    70  64  83 CALM      30.21R

$$

MDZ501>502-210800-
WESTERN MARYLAND

CITY           SKY/WX    TMP DP  RH WIND       PRES   REMARKS
OAKLAND*       CLOUDY    63  61  94 S6        30.25S
CUMBERLAND*    CLEAR     66  66 100 NE5       30.23S

$$

VAZ025>031-210800-
SHENANDOAH VALLEY

CITY           SKY/WX    TMP DP  RH WIND       PRES   REMARKS
WINCHESTER*    PTCLDY    66  64  94 CALM      30.18F
FRONT ROYAL*   CLOUDY    70  70 100 CALM      30.17F
LURAY*         CLEAR     70  70 100 CALM      30.20S
NEW MARKET*    CLOUDY    68  67  96 CALM      30.20R
STAUNTON*      CLEAR     67  65  95 CALM      30.23S
WAYNESBORO*    CLOUDY    70  69  94 CALM      30.23R

$$

WVZ021-048>050-054>055-210800-
EASTERN WEST VIRGINIA PANHANDLE

CITY           SKY/WX    TMP DP  RH WIND       PRES   REMARKS
MARTINSBURG    CLOUDY    69  65  86 CALM      30.18S
PETERSBURG*    CLEAR     69  68  99 CALM      30.20S FOG

$$

VAZ036>039-050-210800-
CENTRAL FOOTHILLS

CITY           SKY/WX    TMP DP  RH WIND       PRES   REMARKS
CHARLOTTESVILL CLOUDY    73  70  90 N3        30.19S
CULPEPER*      PTCLDY    69  69 100 CALM      30.20R FOG
ORANGE*        MOCLDY    68  68 100 CALM      30.19S FOG
GORDONSVILLE*  CLOUDY    70  70 100 CALM      30.19R
WARRENTON*     CLEAR     69  65  88 CALM      30.19R

$$

VAZ055>057-210800-
NORTH AND CENTRAL PIEDMONT

CITY           SKY/WX    TMP DP  RH WIND       PRES   REMARKS
FREDERICKSBRG* CLEAR     71  71 100 CALM      30.17S
STAFFORD*      CLEAR     67  67 100 CALM      30.22S FOG

$$

NCZ024-NYZ072-PAZ021-071-VAZ022-071-210800-
OTHER REGIONAL OBSERVATIONS

CITY           SKY/WX    TMP DP  RH WIND       PRES   REMARKS
NEW YORK CITY  CLEAR     74  60  61 W3        30.19F
PHILADELPHIA   PTCLDY    71  66  84 CALM      30.19S
PITTSBURGH     PTCLDY    68  64  87 CALM      30.16S
ROANOKE        CLEAR     73  68  84 CALM      30.23R
RICHMOND       PTCLDY    72  71  97 E3        30.17F
RALEIGH        PTCLDY    76  72  87 CALM      30.18F

$$

ANZ530>537-210800-
MARINE OBSERVATIONS

STATION/POSITION TIME  TEMP    WIND        PRES
                       AIR SEA DIR/SP/G
                 (UTC) (F)     (DEG/KT/KT) (MB)
THOMAS PT LIGHT  0700   78 81  130/  6/  7   N/A
BALT KEY BRIDGE  0642          250/  5/  5 1022.0R
COVE POINT       0642          200/  2/  3 1022.6F
LEWISETTA        0642          200/  3/  4 1021.8S
SOLOMONS ISLAND  0642           CALM  /  2   N/A
PINEY POINT      0636          200/  6/  7   N/A

$$





USA.gov is the U.S. government's official web portal to all federal, state and local government web resources and services.